{"data":{"norad_id":68821,"epoch":"2026-05-25T02:33:31.574016Z","epoch_age_seconds":66505,"freshness":"FRESH","line1":"1 68821U 26089V   26145.10661544  .00200499  00000+0  13150-2 0  9990","line2":"2 68821  97.2844 351.7714 0002329  76.9622 283.1903 15.75167504  5065","mean_motion":15.75167504,"eccentricity":0.0002329,"inclination_deg":97.2844,"raan_deg":351.7714,"arg_perigee_deg":76.9622,"mean_anomaly_deg":283.1903,"bstar":0.001315,"rev_number":506,"period_min":91.418848874373,"perigee_km":342.58894985288,"apogee_km":345.72019326691,"semimajor_km":6722.2915715599,"source":"CELESTRAK","updated_at":"2026-05-25T13:38:22.044091Z"}}